Wind_Speed
40 40 41 44 46 46 46 46 44 44 44 43 43 43 43 44 45 47 48 49 50 51 52 53 53 54 54 55 57 58 59 60 61 62 63 63 62 61 60 58 57 58 59 61 62 64 65 66 66 66 66 66 66 66 66 66 67 68 69 70 72 73 75 77 79 81 82 81 79 78 76 75 75 74 73 71 67 64 61 57 53 50 47 44 41
44 45 46 48 48 46 46 45 45 45 45 45 45 45 45 47 48 49 50 51 52 53 54 55 55 56 57 58 59 60 61 62 62 63 62 61 59 58 57 56 57 59 60 62 63 64 65 66 66 65 64 64 64 65 65 66 67 68 70 72 73 74 76 77 78 78 79 78 76 75 74 74 74 73 71 69 65 61 58 54 51 47 44 41 40
44 46 48 49 49 48 48 47 47 47 47 47 47 47 48 49 50 51 52 53 54 55 56 56 57 58 59 60 61 62 62 62 62 61 59 57 56 56 56 56 58 60 61 63 64 65 66 65 64 63 62 62 63 64 65 66 68 70 71 73 74 76 77 77 76 76 75 74 73 72 73 73 73 72 69 67 62 58 54 51 48 45 40 36 37
44 46 47 48 48 49 49 48 48 48 49 49 50 50 51 51 52 53 54 55 55 56 57 58 59 60 60 61 62 62 61 61 60 58 56 54 54 55 56 58 59 61 62 64 65 65 64 63 62 61 61 61 62 64 65 67 69 71 72 74 76 77 77 77 76 74 73 72 72 72 72 72 72 71 68 65 61 57 53 48 45 43 37 32 33
44 45 47 48 48 49 49 49 49 50 50 51 51 52 52 53 54 55 55 56 56 57 58 59 60 60 60 60 60 60 59 58 57 54 53 53 54 56 57 59 60 62 63 64 64 63 62 60 59 60 60 61 63 64 66 68 70 72 74 76 77 78 78 77 75 73 72 71 71 72 72 72 72 71 68 65 61 57 53 49 44 40 36 32 31
43 45 46 48 49 49 50 50 50 51 51 51 52 52 53 54 54 55 56 56 57 58 59 59 59 59 58 58 58 57 56 55 54 53 52 53 55 57 58 60 61 62 63 63 62 60 59 58 58 59 60 62 64 65 67 69 71 73 75 77 78 78 78 77 75 74 72 71 72 72 72 72 71 70 68 65 61 55 51 48 44 38 33 31 31
42 44 45 46 48 49 49 50 50 51 51 51 51 52 53 54 55 56 56 56 57 58 58 58 57 56 56 56 55 54 53 53 52 52 52 54 56 58 59 60 61 62 62 61 59 57 57 57 58 59 61 63 65 67 68 70 72 75 77 78 78 78 78 77 76 73 71 71 72 72 71 70 70 69 67 65 62 57 50 46 43 39 33 30 31
41 42 44 45 46 47 48 49 50 51 51 51 52 53 54 55 55 56 56 55 55 56 55 55 54 53 53 53 52 51 51 52 52 52 53 54 57 58 59 60 61 61 60 58 57 56 56 57 58 60 62 64 66 68 70 72 74 75 78 79 79 78 78 77 75 72 70 71 71 71 69 68 67 67 66 64 62 58 52 44 40 38 32 28 29
40 41 42 44 45 47 47 48 49 50 50 51 51 52 53 53 54 53 53 53 52 52 52 51 50 49 50 50 50 50 51 52 52 52 53 55 57 57 59 60 60 59 57 56 55 55 56 57 59 61 63 66 68 69 71 72 74 76 78 79 79 78 78 76 74 71 70 70 69 68 67 65 64 64 63 62 59 55 50 44 38 36 33 28 27
38 40 41 43 44 45 46 47 47 48 49 49 49 50 50 50 50 50 50 50 50 49 48 48 47 47 48 49 49 50 51 52 52 53 54 55 56 57 58 58 57 57 56 55 55 56 57 58 61 63 66 68 69 70 71 72 73 75 77 78 78 77 76 75 72 70 70 69 67 65 63 61 61 61 60 59 58 54 50 46 41 38 36 33 30
37 38 40 41 43 44 44 45 46 46 46 47 47 47 47 48 48 48 48 48 48 47 47 46 46 47 47 48 49 50 51 52 53 54 55 56 56 56 56 56 56 56 55 55 56 57 58 60 63 66 68 69 70 71 72 72 74 75 77 78 77 75 74 72 70 70 70 68 65 62 60 58 58 58 58 56 56 54 51 48 44 40 38 36 34
36 37 38 40 41 42 42 43 43 43 44 44 45 45 46 47 47 47 47 47 47 46 46 45 46 46 47 48 49 50 52 54 55 56 56 55 55 55 55 55 56 56 55 56 57 58 60 62 65 67 69 70 70 71 72 73 74 76 78 78 77 75 72 70 69 69 69 66 64 61 57 56 56 55 54 53 53 53 51 48 45 42 39 37 35
36 36 37 39 40 41 41 41 42 42 42 42 43 44 45 45 46 46 45 45 45 44 43 44 45 46 47 48 50 52 54 55 56 57 56 54 54 54 55 55 56 56 56 57 59 60 62 64 67 69 70 70 71 71 72 73 74 76 78 78 76 74 72 71 70 69 68 65 63 60 56 54 54 53 52 51 51 51 50 47 43 40 37 36 34
36 36 37 39 40 40 40 40 40 39 39 41 42 42 43 43 43 43 43 43 44 44 44 44 46 47 47 49 52 54 55 56 57 57 55 54 54 54 55 56 56 57 57 59 60 62 63 66 68 69 70 71 71 71 71 73 75 77 77 77 76 74 73 72 72 71 69 66 64 60 56 53 52 51 50 49 49 49 48 46 42 38 34 30 28
37 36 37 38 39 39 38 37 37 37 38 40 40 39 39 40 41 41 42 43 44 45 44 44 45 46 48 51 53 54 56 58 58 56 54 54 54 55 56 56 57 57 58 60 61 63 65 67 68 70 70 71 71 71 71 73 75 76 76 75 74 73 72 72 72 71 69 67 64 61 57 55 52 50 48 47 47 48 48 47 43 40 36 31 27
37 36 36 37 37 36 35 34 33 34 35 35 35 36 37 40 41 43 44 45 47 48 47 45 46 49 51 53 54 55 58 60 58 55 54 55 55 56 57 57 57 58 59 61 63 64 66 68 69 70 71 71 70 70 71 72 74 74 74 74 73 73 72 72 72 71 68 66 65 62 59 57 54 51 48 46 45 46 47 47 46 44 41 37 33
37 36 35 35 32 30 31 31 30 31 34 35 37 39 41 43 46 47 48 50 52 53 53 52 52 52 53 54 56 58 60 59 56 55 56 56 56 56 57 58 58 59 61 63 64 65 67 68 69 70 70 70 70 70 71 72 73 72 71 72 72 72 73 73 73 71 69 67 66 63 60 60 58 55 51 47 44 43 44 45 45 44 43 42 38
37 35 34 32 30 27 28 30 34 38 41 43 45 46 46 47 50 52 54 55 57 58 58 56 54 53 54 56 59 60 59 57 56 57 57 57 57 58 58 59 60 61 62 64 65 66 67 68 69 70 70 69 69 69 70 71 71 70 69 70 71 71 72 73 73 71 69 68 67 64 62 61 61 59 54 49 44 41 41 42 44 44 43 43 41
37 35 32 32 31 28 26 30 37 43 47 48 49 50 50 51 54 57 58 59 60 61 60 57 55 56 58 59 59 58 57 56 57 58 59 59 59 59 59 60 61 62 63 64 65 66 68 68 69 69 69 68 68 69 70 70 69 67 66 67 69 70 70 70 71 70 68 67 66 64 61 61 61 60 57 52 47 43 40 39 41 43 42 42 40
37 35 33 32 31 30 29 30 35 42 47 48 49 51 52 53 56 59 60 60 61 62 60 59 58 59 59 58 56 56 56 57 59 60 60 61 60 60 61 61 62 63 63 65 66 67 68 68 69 69 68 68 68 68 69 69 67 64 63 64 67 68 68 68 68 67 66 65 64 62 60 59 59 59 58 55 51 47 42 39 38 39 40 39 38
37 36 35 33 32 32 33 33 37 42 46 48 49 50 50 49 52 57 61 62 63 62 61 60 60 59 58 56 55 56 57 58 59 60 61 61 61 62 62 62 63 63 64 65 66 67 68 68 68 68 68 67 67 68 68 68 65 61 60 61 64 66 66 66 66 66 65 64 63 61 59 58 58 58 58 57 54 51 46 41 37 36 36 36 35
38 37 36 35 34 34 35 36 39 42 44 45 47 48 48 50 53 59 64 65 63 61 60 59 58 57 56 56 56 57 58 59 60 60 61 62 62 63 63 63 63 63 64 65 66 67 67 68 68 68 67 66 67 67 67 66 63 60 58 59 62 65 65 65 65 65 64 63 62 60 58 58 57 57 57 57 56 54 50 44 38 34 33 33 32
39 38 37 37 36 36 37 38 40 41 41 43 45 46 48 51 54 60 65 64 61 59 57 57 57 57 57 57 57 58 58 59 60 61 62 63 63 64 64 64 64 64 64 65 65 66 67 67 67 67 66 66 66 67 67 65 62 59 57 58 61 64 64 64 64 64 64 63 62 60 58 57 57 56 55 55 56 54 51 47 42 38 34 33 33
40 39 39 39 39 39 39 40 40 41 42 43 44 46 48 49 52 59 64 62 59 57 57 57 58 58 58 58 58 58 59 60 61 62 62 63 64 65 66 66 65 65 65 65 65 65 66 66 66 65 65 65 66 66 66 64 60 57 56 56 59 62 63 63 63 63 63 63 62 61 58 56 56 55 53 52 53 53 52 50 47 45 41 37 35
41 41 40 40 40 40 40 41 41 42 43 44 45 46 48 48 51 57 61 61 59 58 58 59 60 60 60 59 59 59 61 61 62 62 63 63 65 67 68 68 68 67 66 64 64 64 65 65 64 64 64 65 65 66 65 62 59 57 55 55 57 60 62 62 63 63 63 62 61 61 59 56 54 54 53 51 50 51 52 51 50 48 47 43 39
41 42 41 41 41 41 41 41 42 43 44 45 46 47 49 50 52 55 58 59 59 59 60 61 61 61 60 60 60 61 62 62 63 64 64 65 66 68 70 71 71 69 66 64 63 64 64 63 63 63 64 64 65 65 64 61 59 57 55 54 55 57 59 61 62 62 62 61 60 59 58 56 54 54 54 52 50 49 50 50 49 48 47 46 44
43 43 43 43 42 42 42 42 43 43 44 45 46 48 49 51 52 54 57 59 59 60 60 61 61 61 61 61 62 63 63 63 64 65 66 66 67 69 72 73 72 69 66 64 63 63 62 62 62 62 63 63 64 64 62 59 58 57 54 53 54 55 57 58 60 61 61 60 59 58 57 56 54 53 54 53 51 48 47 48 48 47 46 45 45
44 44 44 44 44 44 44 44 44 44 45 46 47 48 49 51 52 54 56 59 60 61 61 61 61 61 61 62 63 64 64 64 65 66 67 68 69 71 72 72 70 68 66 63 62 61 61 60 61 61 62 63 64 63 60 58 58 57 54 53 53 54 55 57 58 59 60 60 59 58 58 57 56 54 53 53 52 48 46 46 47 47 45 44 43
47 46 46 46 47 46 46 46 46 46 46 47 48 49 50 52 54 56 57 59 61 62 62 62 62 62 62 63 64 64 65 65 66 69 70 70 71 71 71 69 68 67 65 62 61 60 60 59 59 60 61 63 63 61 58 57 57 55 52 52 53 54 54 56 57 58 59 59 59 59 58 57 56 54 53 53 52 50 46 44 45 45 45 44 43
49 48 48 49 49 49 49 48 48 48 48 49 50 51 53 54 56 57 59 61 62 63 64 63 63 62 62 63 64 65 65 66 68 71 73 73 72 70 68 67 66 65 63 61 60 60 59 59 59 59 60 61 61 60 57 55 54 53 52 52 53 54 54 55 56 58 58 58 58 59 58 56 56 54 53 51 51 50 47 44 43 43 43 43 42
51 51 51 51 51 52 51 51 50 50 50 51 52 54 55 57 58 58 61 64 66 66 66 65 64 64 63 63 64 66 68 69 71 73 74 72 70 69 67 66 65 64 62 61 60 60 59 59 58 59 59 60 60 59 57 54 53 53 54 53 53 54 55 56 56 57 58 58 58 58 58 57 55 54 52 50 49 48 47 45 43 42 42 42 41
53 53 53 54 54 54 54 53 53 53 53 53 54 55 58 60 60 60 63 67 70 71 70 69 68 67 66 65 66 68 69 70 71 71 71 69 68 68 67 66 64 63 62 62 61 61 60 59 58 58 58 58 58 58 57 55 53 54 55 55 54 56 57 57 57 57 57 57 57 57 58 58 56 54 52 49 48 47 46 45 43 42 41 41 41
55 55 56 56 56 56 56 55 55 55 55 56 56 57 59 61 61 62 64 68 71 73 74 73 72 70 68 67 68 69 69 69 68 68 67 67 67 68 67 65 63 62 62 63 63 62 60 58 57 56 57 57 57 57 58 56 54 54 55 56 56 57 58 58 58 57 56 56 55 56 57 57 56 54 52 50 47 46 44 43 43 42 41 40 40
57 57 58 58 58 58 58 58 58 58 58 58 58 58 60 62 63 64 66 69 71 73 74 73 72 70 68 67 68 68 68 68 67 66 66 66 68 68 66 63 61 61 62 64 64 62 60 58 57 56 56 55 55 56 57 57 56 57 57 57 58 59 59 59 58 57 56 55 54 54 56 57 56 55 53 50 48 46 44 42 42 41 40 39 39
59 59 59 59 60 60 60 60 60 60 60 60 60 60 61 63 65 67 69 69 70 70 71 70 69 68 67 66 67 67 67 67 66 65 66 68 68 66 63 61 60 60 61 63 64 62 60 59 57 56 55 54 53 54 55 56 58 60 60 60 60 61 60 59 58 57 56 55 54 54 54 56 56 55 53 50 48 46 44 42 41 40 39 38 37
60 61 61 61 61 61 61 61 61 61 62 62 62 63 64 65 67 68 68 67 66 67 68 68 68 67 66 66 66 66 66 65 64 65 67 68 67 65 62 60 59 59 61 62 62 62 60 58 56 55 54 53 53 53 54 55 58 62 62 62 62 62 61 60 59 58 56 55 54 54 54 55 55 55 54 51 47 45 44 42 40 39 39 38 37
62 62 62 63 63 63 63 62 62 62 63 64 65 66 67 68 68 66 64 63 63 65 66 67 66 66 66 66 65 64 64 64 63 64 66 67 66 65 63 61 59 59 61 61 61 60 59 56 54 54 53 52 53 53 53 54 57 61 63 63 63 63 62 60 59 58 57 55 54 55 55 55 54 53 53 51 47 45 44 43 41 39 38 37 37
63 63 63 64 64 64 64 64 64 64 64 66 67 68 68 67 65 62 61 61 61 62 63 64 64 64 65 65 65 64 64 63 62 62 63 64 64 63 62 61 60 61 62 61 60 59 57 54 53 52 52 53 53 54 54 54 57 60 63 63 63 62 61 60 58 58 57 55 54 55 56 56 54 53 52 50 46 43 43 42 41 40 39 37 37
64 64 65 65 65 65 66 65 66 66 67 68 69 68 66 63 61 60 60 60 59 60 62 63 62 61 62 63 63 63 63 62 62 61 62 62 63 62 62 61 61 61 60 60 58 56 55 53 52 52 53 54 55 56 56 56 58 61 63 63 63 61 60 59 58 58 57 56 55 56 57 57 55 53 51 48 45 42 42 41 40 39 39 37 36
65 66 66 66 66 67 67 68 68 69 69 69 68 66 62 60 59 59 59 59 59 59 61 61 59 59 60 61 62 62 62 61 61 61 62 62 62 61 60 59 58 59 59 58 55 53 53 53 53 54 55 56 57 58 58 58 60 62 64 63 62 60 59 58 58 58 57 56 56 58 59 58 55 53 51 47 42 40 40 40 39 38 38 37 36
67 67 67 68 68 69 70 70 70 70 69 68 66 63 60 59 58 58 58 58 59 59 59 59 58 58 58 59 60 60 60 60 60 61 62 61 60 59 58 57 57 57 57 55 53 53 54 56 56 56 56 57 58 59 59 59 61 63 64 63 61 59 58 58 58 58 58 57 58 59 60 58 55 53 50 45 40 39 39 39 38 38 37 36 35
68 69 69 70 71 71 72 72 71 70 68 66 63 61 60 60 60 59 58 58 58 58 58 58 58 58 57 58 58 58 58 58 59 60 60 59 58 58 57 57 56 55 55 54 54 54 56 57 57 56 56 57 59 60 60 61 62 63 63 62 60 58 57 57 58 58 58 59 60 61 61 58 55 52 48 42 38 37 38 39 38 37 37 36 35
69 70 71 71 72 72 73 72 71 69 66 64 63 62 63 63 62 61 59 58 58 57 57 57 58 57 57 57 57 56 56 56 57 57 58 58 57 57 57 56 55 54 55 55 55 56 57 58 58 56 56 57 59 60 61 61 62 63 63 61 59 58 57 57 57 58 59 61 62 63 61 58 54 50 46 40 37 36 37 38 38 37 36 35 34
70 71 72 73 73 72 72 70 69 67 65 65 64 64 65 65 64 63 62 60 58 57 57 56 57 56 56 56 55 53 53 54 54 54 55 55 55 55 55 54 53 53 54 55 56 56 57 58 58 57 56 57 58 59 59 60 61 62 62 61 59 58 57 56 57 58 60 63 64 63 60 57 52 48 43 39 36 36 37 38 38 37 36 35 33
72 72 73 73 72 71 70 68 67 66 66 66 66 66 66 66 65 64 63 61 59 58 57 57 56 56 55 55 53 51 51 52 52 52 52 52 52 52 52 52 52 53 54 55 55 56 57 58 58 57 56 55 56 57 58 59 60 61 61 61 60 58 56 56 57 59 61 63 64 62 59 55 50 45 42 39 36 35 36 37 38 38 37 36 33
73 73 72 71 70 69 68 67 66 67 67 67 67 67 66 66 65 64 62 61 59 59 58 57 56 56 55 53 51 50 50 50 51 50 50 50 50 50 51 50 51 52 53 53 53 54 55 56 56 55 54 54 55 56 56 57 58 60 61 61 60 58 56 56 58 60 62 62 61 60 57 53 48 43 41 39 37 36 36 37 38 38 37 36 34
72 72 70 69 68 67 67 67 67 68 68 68 68 67 66 64 63 63 62 60 59 58 58 57 56 54 53 52 50 49 49 49 48 48 47 48 48 49 49 49 51 52 52 52 52 53 54 54 54 53 53 53 54 54 56 57 58 59 61 61 59 57 57 58 60 62 62 60 57 56 54 51 47 43 41 40 38 38 37 38 39 39 38 36 35
70 70 69 67 67 67 67 68 68 69 68 68 67 66 64 63 62 62 61 60 59 58 56 55 53 51 50 49 49 48 48 48 47 47 47 47 48 48 48 49 50 51 51 51 51 52 52 53 53 53 53 53 54 55 56 57 58 59 60 59 57 57 59 61 63 63 60 56 53 51 49 48 46 44 42 40 39 39 39 39 40 40 38 36 35
68 68 68 68 68 68 69 69 69 69 68 67 65 64 63 63 62 61 59 57 57 56 54 52 49 47 46 46 47 47 48 48 47 48 48 48 49 49 49 50 50 51 51 51 51 51 52 53 54 53 54 55 56 57 57 58 59 59 59 58 58 60 62 64 63 61 57 53 49 47 46 46 46 46 44 43 41 40 40 41 41 41 39 37 35
68 68 69 70 70 71 71 71 70 69 67 65 64 62 61 61 60 58 56 54 54 54 53 51 49 47 45 44 45 45 46 47 47 48 49 50 50 51 51 51 51 51 51 52 52 52 53 54 54 55 55 56 57 57 58 59 60 60 60 60 62 64 64 64 61 57 53 50 47 45 44 44 45 45 46 46 45 43 42 42 42 42 41 38 35
70 70 71 72 72 72 71 70 68 66 64 63 62 60 58 56 55 54 54 54 54 53 53 51 49 47 46 46 45 45 45 46 47 48 49 50 51 51 51 51 51 51 52 52 53 53 54 54 55 56 56 56 57 58 59 59 60 60 62 64 65 66 64 61 58 54 51 48 46 45 44 45 45 45 46 47 47 47 46 44 43 42 41 39 37
Wind_Direction
247 244 242 245 251 258 264 268 269 270 270 270 270 271 272 274 275 277 279 281 282 284 286 288 291 293 295 296 297 298 300 301 302 303 304 305 306 306 306 307 307 308 309 310 310 311 312 312 313 313 313 313 313 314 314 314 314 314 313 313 313 312 313 313 313 314 314 314 315 315 314 312 311 311 311 311 311 312 312 312 311 308 305 302 298
247 247 248 253 258 262 265 267 269 270 270 270 271 272 272 274 276 277 279 281 283 285 288 290 292 293 295 296 298 299 300 301 302 303 304 305 305 305 306 307 308 309 310 311 311 312 312 313 313 313 314 314 315 315 315 315 315 315 314 315 314 314 314 315 315 315 316 316 317 317 316 315 314 313 313 314 315 315 314 313 311 308 306 303 298
250 250 252 255 259 262 264 266 268 269 270 270 271 271 272 274 276 278 280 282 285 287 289 291 292 294 295 297 298 299 300 300 301 303 304 305 305 306 307 309 310 310 311 311 312 312 313 313 314 314 315 316 316 316 316 316 316 316 316 316 316 317 317 317 317 318 319 319 319 318 318 317 316 316 316 316 317 317 316 315 312 308 307 303 296
253 252 254 256 258 261 263 265 267 268 269 270 271 272 273 275 277 279 281 283 285 288 289 291 293 294 295 297 297 298 299 300 301 303 304 305 306 307 309 310 310 311 311 311 312 312 313 314 315 316 316 317 317 317 317 317 317 318 318 318 319 319 319 319 320 321 322 322 321 321 320 320 318 318 318 319 320 320 319 316 313 310 308 303 294
255 255 256 257 259 261 263 265 267 268 269 270 271 272 274 276 278 280 282 284 286 288 289 291 292 294 295 296 296 297 299 300 302 303 305 305 307 309 310 310 311 311 311 311 312 313 314 315 316 317 317 318 318 318 318 318 319 320 320 321 321 321 321 322 323 325 326 325 324 324 323 322 321 320 320 321 322 322 321 318 314 312 310 304 293
257 257 258 259 260 262 264 266 267 268 269 270 272 273 275 277 279 281 282 284 286 287 289 290 292 294 294 295 296 297 299 300 302 304 305 307 308 310 310 310 311 311 311 312 313 314 315 316 317 318 318 319 319 319 319 320 320 321 322 323 323 323 324 324 326 328 328 327 327 326 325 324 322 322 322 322 322 322 321 318 315 313 311 305 295
260 261 261 262 263 264 265 266 267 269 270 272 273 275 276 278 280 281 283 285 286 288 289 291 292 294 294 295 296 298 299 301 303 305 307 308 309 310 310 310 310 311 311 312 314 315 316 317 318 319 319 320 320 320 320 320 321 322 323 324 325 325 326 327 328 329 330 329 329 328 326 325 323 323 323 323 323 323 323 321 317 315 314 309 300
264 264 264 265 265 266 267 267 269 270 272 273 275 276 278 280 281 283 284 286 287 288 290 292 293 294 294 296 297 299 300 301 303 306 308 309 310 310 310 310 310 311 312 313 315 316 317 318 319 320 321 321 320 320 321 321 322 323 324 325 326 327 328 328 329 330 331 331 330 328 327 326 324 324 323 323 323 322 322 322 320 318 317 312 304
266 266 266 267 267 267 268 269 271 272 273 275 277 278 280 281 282 284 286 287 288 290 291 292 294 294 295 296 298 298 300 302 304 307 309 310 310 310 310 310 310 311 313 314 315 316 317 318 319 320 321 321 321 321 321 322 322 324 325 327 328 328 328 329 329 331 332 332 330 329 328 326 325 323 322 321 321 321 322 323 324 324 322 316 307
268 268 268 268 269 269 270 271 273 274 276 277 279 280 281 282 284 285 287 288 289 291 292 293 294 295 295 296 297 298 300 302 305 307 309 310 310 309 309 310 311 312 314 315 316 316 317 318 319 320 321 322 322 322 322 322 323 324 326 327 328 328 328 329 330 331 332 332 330 329 328 327 325 323 322 322 322 323 325 326 328 328 327 323 314
269 269 270 270 271 272 273 274 276 277 279 280 281 282 282 284 286 287 288 290 291 292 293 293 294 294 295 296 298 299 301 303 305 308 309 310 309 309 309 310 311 313 314 315 316 316 317 318 319 320 321 322 322 322 322 323 324 325 327 327 328 328 329 329 331 332 333 332 331 330 329 327 325 324 324 324 325 325 326 327 328 329 328 324 318
270 271 271 272 273 275 277 278 279 280 281 282 283 284 285 287 288 289 290 290 291 292 292 292 293 294 296 297 299 301 302 304 306 308 309 309 309 309 310 311 312 313 314 315 316 316 317 318 319 320 321 322 323 323 323 324 325 326 327 327 328 328 329 330 332 333 333 332 331 331 330 328 326 325 326 327 326 326 326 327 327 328 326 323 319
273 273 274 275 276 279 280 282 283 284 283 284 286 287 288 288 289 289 290 290 291 291 292 293 294 296 297 298 299 301 303 304 306 308 308 308 309 309 310 311 312 313 314 314 315 316 317 318 320 321 322 323 323 323 324 325 326 327 327 327 328 329 330 331 333 334 333 333 332 332 331 330 328 328 328 328 328 326 325 325 326 325 324 321 318
275 276 277 278 280 282 284 286 287 285 283 286 288 288 288 288 288 289 290 291 291 291 292 294 296 297 297 298 299 300 302 304 307 307 307 308 309 309 310 311 312 313 313 314 315 316 317 318 320 321 322 323 324 324 324 325 327 327 327 327 328 329 331 332 333 334 334 334 333 332 332 332 331 330 330 330 329 326 325 325 325 325 323 319 315
277 278 279 280 283 286 287 287 287 287 288 289 288 288 289 289 290 291 292 292 292 292 292 294 295 296 296 297 299 300 302 304 306 306 306 308 309 310 310 311 311 312 313 314 315 316 317 318 320 321 322 323 324 324 325 326 327 327 326 327 328 329 331 332 333 334 335 334 334 334 333 333 333 332 332 332 331 329 327 327 328 329 327 325 322
276 278 278 281 285 286 286 290 293 291 290 289 289 292 294 292 291 293 292 291 291 291 291 293 294 295 296 297 299 301 302 304 304 304 306 308 309 310 311 311 311 312 312 313 315 316 317 318 319 321 322 323 324 325 326 327 327 326 326 326 327 329 331 332 333 334 335 335 335 335 334 334 334 334 334 335 335 334 332 330 332 333 333 332 331
274 276 278 282 285 280 276 281 283 277 274 277 283 290 292 290 290 292 291 290 290 291 293 295 297 297 296 296 299 301 302 302 302 303 305 307 309 310 310 310 311 311 312 313 314 316 317 318 319 320 322 323 324 325 326 326 326 326 326 326 327 329 331 332 334 335 336 336 336 336 336 336 335 335 335 336 338 338 336 334 334 336 335 334 334
274 277 280 281 280 273 262 260 261 263 266 270 277 284 287 287 287 288 288 287 287 289 292 295 297 297 295 296 298 300 300 300 302 303 305 307 308 309 309 310 311 311 312 313 314 315 316 317 319 320 322 323 324 324 325 326 326 326 326 326 328 329 331 333 334 336 337 338 337 338 338 337 336 335 335 336 338 340 340 338 337 337 337 335 335
276 278 279 277 275 272 261 251 254 261 265 268 272 277 279 280 281 282 282 283 284 287 291 294 295 295 295 296 298 298 298 300 302 303 304 306 307 307 308 309 310 311 312 313 314 315 315 317 318 320 322 323 323 324 325 325 325 325 325 326 327 329 331 333 334 336 337 338 338 338 338 337 336 334 334 336 338 341 343 342 341 339 338 336 334
276 277 277 275 273 270 264 254 253 258 263 266 269 273 275 278 279 279 280 282 284 287 291 293 294 295 295 296 296 297 298 300 302 303 304 305 306 307 308 309 310 311 312 312 313 314 315 316 318 319 321 322 323 323 324 324 325 325 325 326 327 328 331 333 334 335 336 338 339 338 338 337 336 335 335 336 338 340 342 344 343 341 339 337 335
276 276 276 275 273 268 264 258 253 255 259 263 266 271 275 276 277 278 280 282 284 287 289 290 292 293 294 295 297 298 300 301 301 302 303 304 305 306 307 308 309 310 311 312 313 314 314 316 317 319 320 322 322 323 323 323 324 324 323 324 326 327 330 332 334 335 336 338 339 339 338 338 337 337 337 337 337 339 341 343 343 342 341 341 339
276 277 277 276 273 269 266 262 260 261 264 266 268 270 270 270 271 274 277 280 283 286 287 289 291 292 294 296 298 299 300 300 301 302 303 304 305 306 307 308 309 310 311 312 312 313 314 315 317 318 320 321 321 322 322 322 323 323 323 323 325 326 329 332 334 335 336 337 339 340 339 338 338 339 338 337 337 337 338 339 341 343 345 345 343
275 276 276 275 273 271 269 267 266 267 268 268 269 270 270 270 272 273 275 279 283 286 288 289 291 293 295 296 298 299 299 300 301 302 302 304 305 305 306 307 308 310 311 311 312 312 313 315 316 318 319 320 321 321 321 322 323 323 323 323 324 326 329 332 335 336 336 337 339 340 340 339 339 339 339 338 336 335 336 338 341 343 347 350 349
274 275 275 276 275 274 273 271 270 269 269 269 270 271 272 274 274 275 278 283 287 289 290 292 293 294 295 296 298 299 299 299 300 301 302 303 304 304 305 306 308 309 310 311 311 311 313 314 316 317 319 319 320 320 321 322 323 323 323 323 324 326 329 332 335 336 336 337 339 340 341 340 339 338 339 338 336 335 336 340 343 344 346 350 353
275 276 277 278 277 277 276 275 274 273 272 272 273 273 274 275 275 277 282 287 290 292 293 293 293 294 296 297 298 298 298 298 299 300 300 302 302 303 304 305 307 308 309 310 310 311 312 314 316 317 318 318 319 319 320 321 322 323 323 322 323 326 329 332 334 336 335 336 338 340 340 340 339 338 338 338 338 338 339 341 344 345 346 348 351
275 277 278 278 278 278 278 277 276 275 275 275 276 276 276 277 277 279 282 285 288 289 290 291 292 294 296 296 297 296 296 297 298 298 299 300 301 302 303 305 306 307 308 309 310 311 312 314 315 316 317 317 318 319 320 321 322 323 322 321 322 326 330 332 334 335 335 335 336 339 340 340 339 338 338 339 340 340 340 341 343 346 347 347 348
275 276 277 278 278 278 278 278 278 278 278 278 278 278 279 280 281 282 283 285 286 287 289 291 292 293 294 295 295 295 296 296 297 297 298 299 300 301 302 304 305 306 307 308 309 311 312 314 315 316 316 316 317 318 320 320 321 323 322 320 321 325 329 331 333 334 333 333 335 338 340 340 340 339 339 340 340 341 341 341 342 345 346 347 348
275 276 277 277 278 278 279 279 279 279 280 280 280 281 282 282 283 284 285 286 288 289 290 291 292 293 294 294 294 294 295 295 296 296 296 297 299 300 302 303 304 304 306 308 309 311 312 313 315 315 314 315 316 318 319 321 322 322 321 320 321 325 328 331 332 333 332 332 334 337 339 341 340 340 339 339 339 340 342 342 342 343 345 347 349
275 276 277 277 278 279 279 280 280 281 281 282 282 283 283 284 285 287 288 288 288 289 289 290 291 293 293 293 293 293 294 295 295 295 296 297 299 300 301 302 301 303 305 308 309 310 311 313 314 313 313 314 315 317 319 321 322 321 320 320 322 325 327 330 332 332 332 332 333 336 339 340 341 339 339 339 338 338 340 342 342 342 344 346 349
275 277 277 278 278 279 280 280 281 282 282 283 284 284 285 286 287 289 289 288 288 288 289 290 291 292 292 292 292 293 294 294 294 294 295 297 298 299 300 299 300 303 306 307 307 308 310 312 312 312 312 312 314 315 318 320 321 319 319 321 323 325 327 330 331 332 332 331 333 335 337 339 340 339 338 338 337 337 338 340 341 341 343 345 347
276 277 278 278 278 279 280 281 281 282 283 284 285 286 286 286 288 289 290 289 289 289 291 292 292 292 292 292 293 293 293 294 294 294 296 297 299 299 298 299 302 304 305 305 305 307 309 311 311 310 310 311 312 314 316 318 319 318 319 322 323 325 327 329 331 332 331 330 332 334 335 337 339 339 337 336 336 336 336 337 339 341 342 343 345
276 277 278 278 279 279 280 281 282 283 284 285 286 286 286 288 290 292 291 291 292 293 294 294 294 293 294 294 293 292 293 293 294 294 295 296 296 296 297 300 302 303 303 302 303 305 307 309 309 309 309 309 310 312 314 316 317 318 319 321 323 324 326 328 330 331 330 329 330 333 334 335 337 338 336 334 334 335 335 336 338 340 341 341 343
276 277 278 278 279 280 281 282 283 283 284 285 286 286 287 289 291 291 291 291 292 293 293 294 294 294 294 293 292 291 292 292 292 292 293 293 292 293 296 299 300 300 300 300 301 304 306 308 307 306 306 307 308 310 312 314 316 317 318 320 322 323 325 327 328 329 329 327 328 331 332 333 335 336 335 333 332 333 334 334 335 337 339 341 342
275 276 277 278 279 280 281 282 283 284 285 286 286 287 288 289 290 290 290 290 290 290 290 291 291 292 291 291 290 290 290 289 289 289 289 289 289 291 295 296 297 296 297 298 300 303 306 306 306 304 304 305 307 309 311 313 315 316 317 318 320 322 323 325 326 327 327 326 326 329 331 332 333 335 334 332 330 331 332 333 334 336 338 339 340
274 275 277 278 279 281 282 283 284 285 286 287 287 288 288 289 289 290 289 289 288 287 287 288 288 288 288 288 288 288 288 288 288 288 287 286 288 290 292 293 294 294 295 297 300 303 305 305 303 302 302 304 306 308 311 313 314 315 316 317 319 320 321 323 324 325 325 324 325 327 330 331 332 333 333 331 328 327 329 331 332 334 335 337 338
274 276 278 279 280 282 283 284 285 285 286 287 288 288 289 289 289 289 288 287 286 285 286 286 287 287 287 287 287 288 288 289 289 288 288 288 290 292 293 293 294 294 294 296 299 301 303 302 301 301 302 304 306 308 310 311 312 312 314 316 317 318 320 321 322 324 324 323 323 326 328 330 331 331 331 329 326 325 326 328 330 331 333 334 336
276 278 279 280 281 282 283 284 285 286 287 287 288 288 289 289 288 287 286 284 284 284 284 285 285 286 287 288 288 289 289 289 288 287 286 288 290 292 293 294 294 293 293 294 297 299 300 300 299 300 301 302 305 307 307 307 309 310 311 313 315 316 318 320 321 322 322 321 322 325 326 328 330 330 330 328 324 322 323 325 327 329 331 332 334
278 279 280 281 282 282 283 284 285 286 287 287 288 289 289 289 287 286 284 283 283 282 282 282 283 285 286 288 288 289 289 289 287 286 285 287 288 289 290 291 290 290 290 293 296 296 297 298 299 299 300 301 303 305 305 305 307 308 308 310 313 315 317 319 320 321 320 320 321 323 325 326 328 329 328 326 322 319 320 322 324 327 329 331 333
278 279 280 281 282 283 284 285 286 287 287 288 289 289 289 287 286 285 284 284 282 281 280 281 283 285 286 287 287 288 288 288 287 285 284 284 284 285 286 287 287 288 289 292 293 294 296 298 299 299 299 300 301 302 303 304 305 305 306 309 311 314 316 318 319 320 319 319 321 323 323 324 326 327 326 324 320 316 317 319 322 324 326 329 331
278 279 280 282 283 283 284 285 286 287 288 289 289 288 287 286 285 285 284 284 282 281 281 282 284 285 285 285 286 286 286 286 285 283 283 282 283 284 286 287 287 288 289 290 292 294 296 298 298 297 297 298 299 300 301 302 303 303 305 308 311 313 315 317 318 318 317 318 320 322 322 322 324 325 324 321 317 314 314 317 320 322 325 326 328
279 280 281 282 283 284 285 286 287 288 288 288 288 287 286 285 285 284 283 283 281 280 281 282 283 283 283 284 284 284 285 284 283 282 283 283 284 285 285 286 286 287 288 290 293 295 296 296 295 295 295 296 296 297 299 300 301 302 304 306 309 312 314 317 317 317 316 318 320 321 320 321 323 323 321 319 315 312 312 315 318 321 323 324 326
280 281 282 283 284 285 287 287 288 288 288 288 287 287 287 287 286 285 284 283 281 280 280 280 281 282 283 283 283 283 283 282 281 281 282 283 283 283 284 285 286 287 288 290 292 293 293 293 293 293 293 293 294 295 296 298 299 300 303 306 309 311 314 316 316 316 316 318 319 319 319 320 321 321 319 316 313 311 311 313 316 319 320 322 323
281 282 283 284 286 287 288 288 289 289 288 288 288 289 289 288 288 287 286 284 283 281 279 279 280 281 282 282 282 282 281 280 279 280 280 281 282 282 283 284 285 285 286 287 289 290 290 290 290 291 290 290 291 292 294 296 298 300 303 305 308 311 314 315 315 315 316 317 318 318 318 319 320 319 317 314 311 310 310 312 315 317 318 319 320
281 282 283 284 285 286 287 287 287 287 287 288 288 288 289 288 288 287 287 286 284 282 280 279 280 280 281 281 281 281 279 278 278 278 279 279 280 281 282 283 282 282 283 285 286 287 287 288 288 288 288 288 289 290 293 295 297 300 302 305 307 310 313 314 315 315 315 316 316 316 317 318 318 316 314 312 311 310 310 311 313 315 316 316 317
281 282 283 284 285 285 285 285 285 286 286 287 287 287 287 287 287 287 286 285 284 283 282 281 281 280 280 279 278 277 276 276 276 277 278 279 280 280 280 280 281 281 281 283 284 285 286 286 287 287 286 287 288 290 293 295 297 299 302 304 307 310 312 313 313 314 314 314 314 315 316 316 315 313 311 310 310 309 309 310 311 313 313 313 313
281 282 283 283 283 284 284 284 284 285 285 286 286 286 286 286 285 285 284 283 283 282 282 281 280 279 277 276 274 274 273 274 275 277 278 278 279 279 279 280 281 281 282 283 283 283 284 285 286 286 286 288 289 291 293 295 297 299 301 303 306 309 311 312 312 312 312 312 313 315 315 313 311 309 308 308 308 308 308 308 309 310 311 311 310
280 281 281 281 281 282 282 283 283 284 285 285 285 285 285 285 284 283 283 283 282 282 281 280 278 276 275 274 273 273 273 274 276 277 277 278 278 279 280 281 282 283 284 284 283 282 283 285 286 287 288 289 291 292 294 295 297 298 300 302 305 309 311 311 310 310 310 311 313 314 312 309 306 306 306 306 306 307 307 307 308 308 308 307 307
280 280 280 280 280 280 281 282 283 283 284 284 284 284 284 283 282 282 282 282 282 280 279 278 277 276 275 274 274 273 274 274 275 276 277 278 279 279 280 282 283 283 284 283 282 282 283 284 286 288 289 291 292 293 294 295 297 298 300 302 306 309 309 309 308 308 309 311 312 311 307 303 302 303 304 304 305 306 306 306 306 306 305 304 303
279 279 280 280 280 281 281 282 282 282 283 282 282 282 281 281 281 281 281 280 278 277 277 277 276 276 275 274 274 273 273 274 275 276 277 278 278 279 280 281 282 283 283 283 283 283 284 285 287 289 290 291 292 293 295 296 297 299 301 304 307 307 307 305 305 306 308 309 309 305 301 299 300 302 303 303 304 305 305 305 304 303 302 301 301
279 279 280 280 281 281 282 282 282 282 282 281 281 280 280 280 280 279 278 276 274 274 275 276 277 277 277 277 276 275 275 275 275 276 277 277 278 279 280 281 282 283 283 284 284 284 285 286 288 289 290 291 292 294 295 296 297 300 302 305 305 304 303 302 303 305 307 307 304 300 298 297 299 300 302 303 303 304 303 303 302 301 300 300 300
280 280 281 281 281 282 282 282 282 281 281 281 280 280 279 277 276 275 274 273 272 273 274 276 277 278 278 278 278 277 277 277 277 277 277 278 278 280 281 281 282 283 283 284 284 285 286 287 287 288 290 291 292 293 294 296 298 301 302 302 301 300 300 301 303 305 305 303 300 297 296 296 297 299 300 301 302 302 302 301 300 299 299 300 299
Height
10676 10676 10676 10675 10675 10675 10676 10676 10677 10677 10678 10678 10677 10677 10676 10675 10674 10673 10672 10671 10670 10668 10666 10664 10662 10660 10658 10656 10654 10652 10650 10647 10645 10642 10639 10636 10633 10629 10626 10623 10620 10617 10613 10609 10605 10601 10596 10591 10586 10581 10576 10571 10565 10560 10555 10551 10546 10541 10536 10531 10525 10519 10512 10504 10496 10486 10477 10471 10464 10457 10450 10442 10433 10427 10421 10417 10414 10410 10406 10403 10403 10401 10399 10397 10394
10671 10671 10671 10671 10671 10671 10672 10672 10672 10673 10673 10673 10672 10672 10671 10670 10669 10668 10666 10666 10664 10662 10660 10658 10656 10654 10652 10650 10648 10646 10643 10641 10639 10637 10634 10630 10627 10623 10621 10618 10615 10611 10607 10603 10599 10595 10590 10585 10580 10574 10569 10564 10559 10554 10549 10544 10539 10534 10529 10523 10517 10511 10505 10498 10490 10482 10472 10463 10456 10448 10439 10431 10424 10417 10412 10408 10405 10403 10398 10395 10393 10391 10391 10389 10385
10667 10667 10667 10667 10667 10667 10667 10668 10668 10669 10669 10668 10667 10667 10665 10664 10663 10662 10661 10660 10658 10656 10654 10652 10650 10648 10646 10644 10641 10639 10637 10635 10633 10631 10628 10624 10621 10618 10615 10612 10608 10604 10600 10596 10592 10588 10583 10578 10573 10568 10563 10558 10553 10548 10542 10537 10532 10527 10521 10515 10509 10502 10496 10490 10483 10476 10467 10457 10448 10441 10432 10423 10415 10409 10404 10400 10397 10395 10392 10389 10385 10383 10384 10382 10377
10662 10663 10663 10663 10664 10663 10664 10664 10664 10664 10664 10663 10663 10661 10660 10659 10658 10656 10655 10654 10653 10651 10649 10647 10645 10642 10640 10637 10635 10633 10631 10629 10627 10625 10622 10618 10615 10612 10609 10606 10602 10598 10594 10590 10586 10581 10577 10571 10566 10561 10557 10552 10547 10542 10537 10531 10525 10520 10514 10507 10500 10493 10486 10480 10474 10467 10459 10450 10440 10433 10425 10416 10407 10400 10396 10393 10389 10386 10384 10382 10379 10376 10376 10375 10369
10657 10658 10658 10659 10659 10659 10659 10659 10660 10660 10659 10659 10657 10656 10655 10653 10652 10651 10650 10649 10647 10645 10643 10641 10639 10636 10634 10631 10628 10626 10624 10623 10621 10619 10616 10612 10609 10606 10603 10600 10596 10592 10588 10584 10580 10575 10570 10565 10560 10555 10551 10546 10542 10537 10531 10525 10518 10512 10506 10499 10492 10485 10478 10471 10464 10458 10450 10442 10433 10425 10417 10408 10399 10392 10388 10385 10382 10379 10375 10373 10372 10370 10369 10367 10363
10652 10653 10653 10654 10654 10654 10654 10655 10655 10654 10654 10653 10652 10651 10649 10648 10647 10645 10645 10644 10642 10640 10638 10635 10633 10630 10627 10624 10622 10620 10618 10616 10615 10613 10610 10607 10603 10600 10597 10593 10590 10586 10582 10578 10573 10569 10564 10559 10554 10550 10546 10541 10536 10531 10525 10519 10512 10505 10499 10492 10485 10477 10469 10462 10455 10449 10442 10434 10426 10418 10410 10402 10393 10386 10380 10377 10376 10375 10372 10367 10364 10364 10364 10360 10356
10647 10648 10648 10648 10649 10649 10649 10649 10649 10649 10648 10648 10647 10645 10644 10643 10641 10640 10639 10638 10636 10634 10631 10629 10627 10624 10621 10618 10616 10614 10612 10610 10609 10607 10604 10601 10598 10594 10591 10587 10583 10580 10575 10571 10567 10563 10558 10554 10549 10545 10540 10536 10530 10525 10519 10513 10506 10499 10493 10486 10478 10471 10462 10454 10448 10442 10436 10428 10419 10412 10405 10397 10388 10380 10375 10370 10367 10366 10366 10363 10358 10355 10357 10355 10349
10642 10643 10643 10643 10643 10644 10644 10643 10643 10643 10643 10642 10641 10640 10638 10637 10636 10634 10633 10632 10629 10627 10625 10623 10620 10618 10615 10612 10610 10608 10606 10604 10603 10601 10599 10596 10592 10589 10585 10581 10577 10573 10569 10565 10561 10557 10553 10549 10544 10540 10536 10531 10525 10518 10512 10506 10500 10493 10486 10479 10472 10464 10456 10449 10442 10436 10431 10424 10415 10407 10400 10393 10384 10376 10370 10366 10362 10359 10357 10358 10354 10350 10349 10349 10343
10637 10638 10638 10638 10638 10638 10638 10638 10637 10637 10637 10636 10636 10635 10633 10631 10630 10628 10627 10625 10623 10621 10619 10617 10614 10612 10609 10607 10605 10603 10601 10599 10597 10595 10593 10590 10587 10583 10579 10575 10571 10567 10563 10560 10555 10551 10548 10543 10539 10535 10531 10525 10520 10513 10507 10501 10494 10488 10481 10473 10465 10458 10451 10444 10438 10432 10426 10420 10413 10404 10397 10389 10382 10375 10368 10363 10359 10356 10353 10351 10350 10346 10343 10341 10338
10633 10633 10632 10632 10632 10632 10632 10632 10632 10632 10631 10631 10630 10629 10627 10625 10623 10622 10621 10619 10617 10615 10613 10611 10609 10607 10604 10602 10600 10597 10595 10593 10592 10590 10588 10585 10581 10577 10573 10569 10566 10561 10558 10554 10550 10546 10542 10538 10534 10530 10525 10520 10514 10508 10502 10496 10490 10484 10477 10470 10463 10455 10448 10440 10434 10428 10422 10416 10410 10402 10395 10387 10380 10373 10367 10360 10354 10350 10347 10345 10343 10341 10338 10334 10330
10628 10628 10627 10627 10626 10626 10627 10627 10627 10626 10626 10625 10624 10623 10621 10619 10617 10616 10615 10613 10611 10609 10607 10606 10604 10602 10599 10597 10594 10592 10590 10588 10586 10584 10582 10579 10575 10572 10568 10564 10560 10556 10552 10548 10544 10540 10537 10533 10529 10524 10519 10514 10508 10502 10496 10490 10484 10478 10472 10465 10459 10452 10445 10438 10431 10424 10417 10411 10406 10400 10392 10385 10378 10370 10364 10357 10350 10345 10342 10340 10338 10336 10334 10330 10325
10623 10623 10622 10621 10621 10621 10621 10621 10621 10620 10620 10619 10618 10617 10615 10613 10611 10610 10608 10607 10605 10603 10602 10600 10598 10596 10594 10592 10589 10587 10584 10582 10581 10579 10577 10573 10570 10566 10562 10558 10554 10550 10546 10542 10539 10535 10531 10527 10523 10518 10513 10508 10502 10496 10490 10484 10478 10472 10465 10459 10453 10447 10441 10434 10428 10421 10414 10407 10401 10396 10390 10383 10376 10369 10362 10355 10348 10342 10338 10335 10333 10331 10329 10325 10322
10618 10618 10617 10616 10616 10616 10615 10615 10615 10615 10614 10613 10612 10611 10609 10607 10605 10604 10602 10601 10599 10598 10596 10595 10593 10591 10589 10586 10584 10581 10579 10577 10575 10573 10571 10568 10564 10560 10556 10552 10548 10544 10541 10537 10533 10530 10526 10522 10517 10512 10507 10502 10496 10490 10484 10478 10472 10466 10459 10453 10446 10440 10433 10427 10422 10416 10409 10402 10396 10391 10386 10380 10374 10366 10359 10353 10346 10339 10334 10332 10329 10327 10324 10321 10317
10613 10613 10612 10611 10610 10611 10611 10610 10610 10609 10608 10607 10606 10605 10603 10601 10599 10598 10597 10595 10593 10592 10591 10589 10587 10586 10584 10581 10579 10576 10574 10572 10570 10568 10565 10562 10558 10554 10550 10546 10543 10539 10535 10532 10528 10524 10520 10516 10511 10506 10501 10496 10490 10484 10478 10472 10466 10459 10453 10447 10440 10434 10427 10420 10414 10408 10402 10396 10390 10385 10380 10376 10370 10364 10357 10350 10344 10337 10332 10328 10326 10323 10320 10317 10314
10607 10608 10607 10606 10606 10606 10606 10606 10605 10604 10602 10601 10600 10599 10598 10596 10594 10593 10591 10590 10588 10586 10586 10585 10583 10581 10579 10577 10574 10572 10569 10566 10564 10562 10560 10557 10553 10549 10545 10541 10537 10534 10530 10526 10522 10519 10514 10510 10505 10500 10495 10490 10484 10478 10472 10466 10460 10453 10447 10441 10435 10429 10423 10416 10409 10403 10397 10390 10385 10379 10374 10369 10366 10361 10355 10349 10342 10334 10327 10322 10319 10316 10313 10311 10309
10603 10603 10603 10603 10603 10602 10600 10600 10600 10599 10597 10596 10595 10594 10593 10591 10589 10588 10586 10584 10582 10581 10580 10580 10579 10577 10575 10572 10570 10567 10563 10561 10558 10556 10553 10551 10547 10543 10539 10536 10532 10529 10525 10521 10517 10513 10509 10504 10500 10494 10489 10484 10478 10472 10467 10461 10455 10448 10441 10435 10429 10424 10418 10412 10405 10399 10393 10386 10379 10373 10367 10362 10358 10355 10351 10346 10340 10332 10324 10317 10313 10310 10306 10303 10301
10598 10599 10600 10601 10601 10599 10597 10597 10597 10595 10593 10592 10591 10590 10589 10587 10584 10583 10581 10579 10577 10575 10574 10574 10573 10571 10569 10567 10564 10561 10558 10555 10552 10550 10547 10545 10542 10538 10534 10531 10527 10524 10520 10516 10512 10508 10503 10499 10494 10489 10484 10478 10473 10467 10461 10456 10450 10443 10437 10430 10424 10417 10411 10405 10399 10393 10386 10379 10373 10367 10361 10355 10350 10346 10343 10341 10337 10331 10324 10317 10311 10306 10302 10298 10295
10594 10596 10597 10598 10597 10595 10595 10595 10594 10591 10590 10589 10587 10586 10585 10582 10580 10577 10575 10574 10572 10570 10569 10568 10567 10565 10563 10561 10559 10556 10552 10549 10546 10543 10541 10539 10536 10533 10530 10526 10522 10519 10515 10510 10506 10502 10498 10494 10489 10484 10479 10473 10468 10462 10457 10451 10445 10438 10432 10426 10420 10414 10407 10400 10393 10386 10380 10373 10367 10361 10355 10349 10344 10339 10337 10335 10332 10329 10324 10317 10310 10304 10300 10295 10291
10590 10592 10593 10592 10591 10590 10591 10591 10590 10588 10586 10585 10583 10581 10580 10577 10574 10572 10570 10568 10566 10564 10564 10563 10562 10560 10558 10556 10553 10550 10547 10544 10541 10538 10535 10533 10530 10527 10524 10521 10517 10513 10509 10505 10501 10497 10492 10488 10484 10479 10474 10469 10463 10458 10452 10446 10440 10434 10428 10422 10416 10411 10405 10399 10392 10385 10379 10372 10365 10358 10352 10347 10341 10336 10331 10328 10326 10324 10321 10316 10310 10303 10298 10293 10289
10585 10586 10587 10587 10587 10586 10585 10586 10586 10584 10582 10580 10578 10576 10575 10572 10568 10565 10563 10562 10560 10559 10558 10557 10556 10554 10552 10550 10548 10545 10542 10538 10535 10532 10529 10527 10524 10522 10519 10516 10512 10508 10504 10500 10495 10491 10487 10483 10479 10474 10470 10465 10459 10453 10448 10442 10437 10431 10425 10419 10413 10408 10403 10397 10391 10385 10379 10373 10366 10358 10352 10346 10340 10334 10328 10323 10320 10318 10316 10314 10309 10303 10298 10292 10286
10579 10580 10581 10581 10582 10581 10580 10580 10579 10577 10576 10575 10573 10571 10571 10568 10563 10558 10556 10555 10554 10553 10552 10552 10551 10549 10547 10544 10542 10539 10536 10533 10529 10526 10523 10521 10518 10516 10513 10510 10507 10503 10499 10495 10490 10486 10481 10477 10473 10469 10465 10460 10455 10449 10444 10439 10434 10428 10422 10417 10411 10406 10401 10395 10389 10383 10377 10371 10365 10358 10351 10345 10339 10332 10325 10320 10316 10313 10311 10310 10308 10303 10298 10292 10286
10573 10574 10574 10575 10576 10575 10574 10573 10572 10571 10570 10570 10568 10567 10566 10564 10560 10554 10550 10549 10549 10549 10548 10547 10546 10544 10541 10538 10536 10533 10530 10527 10524 10521 10518 10515 10512 10509 10506 10504 10501 10498 10494 10490 10485 10480 10476 10472 10468 10464 10459 10455 10450 10445 10440 10435 10430 10425 10419 10414 10408 10403 10398 10393 10387 10381 10375 10369 10363 10357 10350 10343 10337 10332 10325 10318 10313 10309 10306 10305 10304 10301 10296 10291 10286
10567 10568 10568 10569 10569 10569 10568 10568 10566 10566 10565 10563 10562 10561 10559 10558 10556 10551 10545 10544 10545 10544 10543 10541 10539 10537 10535 10532 10530 10527 10524 10521 10518 10515 10512 10509 10506 10503 10500 10497 10495 10492 10489 10485 10480 10475 10471 10467 10463 10458 10454 10450 10445 10440 10436 10431 10426 10421 10416 10410 10405 10399 10394 10389 10384 10378 10372 10366 10360 10355 10349 10342 10336 10331 10326 10319 10313 10307 10303 10300 10297 10294 10292 10288 10283
10561 10561 10562 10562 10562 10562 10562 10561 10561 10560 10559 10558 10557 10555 10553 10553 10550 10543 10538 10538 10539 10537 10536 10534 10532 10530 10528 10526 10524 10521 10518 10515 10512 10509 10506 10503 10499 10496 10493 10491 10489 10487 10483 10479 10475 10470 10466 10462 10457 10453 10449 10445 10440 10436 10431 10426 10422 10417 10412 10407 10401 10396 10390 10385 10380 10375 10370 10364 10358 10352 10347 10342 10336 10331 10326 10321 10314 10307 10301 10295 10290 10287 10284 10282 10279
10554 10555 10555 10555 10556 10556 10555 10555 10554 10553 10552 10552 10551 10549 10547 10547 10544 10538 10532 10531 10530 10529 10528 10527 10525 10523 10522 10520 10517 10515 10512 10509 10506 10503 10500 10497 10493 10489 10485 10484 10482 10480 10477 10474 10469 10465 10461 10457 10452 10448 10444 10440 10435 10431 10426 10422 10418 10414 10409 10404 10399 10393 10387 10382 10377 10372 10367 10362 10356 10350 10345 10340 10335 10330 10326 10321 10315 10307 10299 10293 10288 10283 10279 10275 10274
10548 10548 10548 10549 10549 10549 10548 10548 10548 10547 10546 10545 10544 10542 10541 10539 10537 10534 10530 10527 10525 10524 10522 10521 10519 10517 10515 10513 10511 10508 10505 10503 10500 10497 10494 10491 10487 10483 10479 10476 10475 10473 10471 10468 10464 10460 10456 10452 10447 10443 10439 10435 10431 10426 10422 10418 10414 10410 10406 10402 10397 10391 10386 10380 10375 10370 10365 10360 10355 10350 10344 10338 10334 10329 10323 10319 10314 10307 10300 10294 10289 10284 10279 10274 10270
10542 10542 10542 10542 10542 10542 10542 10541 10541 10540 10539 10538 10537 10535 10533 10532 10530 10528 10525 10522 10520 10519 10517 10515 10513 10511 10509 10507 10504 10501 10499 10496 10493 10490 10487 10485 10482 10478 10473 10470 10468 10466 10464 10462 10458 10454 10450 10447 10442 10438 10434 10430 10426 10422 10418 10414 10410 10406 10403 10399 10394 10389 10384 10378 10373 10369 10364 10359 10354 10348 10342 10336 10331 10326 10321 10316 10312 10307 10301 10295 10289 10285 10280 10276 10270
10535 10536 10536 10535 10535 10535 10535 10535 10534 10533 10532 10531 10530 10528 10527 10524 10523 10521 10518 10515 10513 10511 10510 10508 10507 10505 10503 10500 10497 10494 10492 10490 10487 10484 10480 10478 10476 10472 10468 10464 10461 10459 10457 10455 10452 10449 10445 10441 10437 10433 10429 10425 10421 10417 10414 10410 10405 10401 10398 10395 10391 10386 10381 10376 10371 10366 10361 10356 10350 10345 10340 10334 10328 10324 10319 10315 10310 10306 10301 10295 10289 10285 10281 10276 10272
10528 10528 10528 10528 10528 10528 10528 10528 10528 10527 10526 10524 10523 10521 10520 10517 10515 10514 10512 10509 10506 10504 10503 10501 10500 10499 10497 10493 10490 10487 10485 10483 10480 10476 10473 10471 10469 10466 10462 10459 10455 10452 10451 10449 10446 10443 10440 10436 10432 10428 10424 10420 10416 10413 10409 10405 10401 10398 10394 10391 10387 10383 10378 10373 10368 10363 10358 10353 10347 10342 10337 10332 10326 10322 10318 10313 10308 10304 10300 10295 10290 10285 10280 10276 10272
10521 10521 10521 10521 10521 10521 10521 10521 10521 10520 10519 10518 10516 10514 10513 10511 10509 10507 10504 10501 10499 10497 10495 10494 10493 10492 10489 10486 10483 10480 10478 10476 10473 10468 10465 10464 10462 10459 10456 10452 10449 10447 10445 10442 10440 10437 10434 10431 10427 10423 10419 10415 10411 10408 10405 10401 10397 10393 10390 10387 10382 10378 10374 10370 10365 10360 10355 10350 10345 10340 10335 10331 10326 10320 10316 10312 10307 10302 10298 10294 10290 10285 10281 10276 10272
10514 10514 10514 10514 10514 10514 10514 10514 10514 10513 10512 10511 10510 10508 10505 10503 10502 10500 10496 10492 10489 10487 10487 10486 10485 10483 10481 10479 10476 10472 10470 10468 10464 10460 10457 10455 10453 10450 10447 10445 10442 10440 10438 10436 10434 10432 10429 10426 10422 10418 10414 10410 10406 10403 10400 10397 10393 10388 10385 10382 10378 10374 10370 10366 10361 10357 10352 10347 10342 10337 10332 10328 10324 10319 10315 10312 10307 10302 10297 10292 10289 10284 10280 10276 10273
10507 10507 10506 10506 10506 10506 10506 10507 10506 10506 10505 10504 10503 10501 10496 10493 10493 10492 10487 10481 10477 10476 10475 10475 10474 10472 10471 10470 10467 10464 10462 10460 10456 10453 10450 10448 10446 10442 10440 10439 10437 10434 10432 10430 10428 10426 10423 10420 10417 10413 10409 10405 10402 10398 10395 10392 10389 10384 10380 10376 10373 10370 10366 10362 10358 10354 10350 10345 10340 10335 10329 10325 10321 10317 10314 10310 10307 10302 10297 10291 10287 10283 10279 10275 10271
10500 10500 10499 10499 10499 10499 10499 10499 10499 10498 10498 10497 10496 10493 10489 10486 10485 10483 10479 10474 10470 10467 10464 10464 10463 10462 10462 10461 10458 10455 10454 10452 10450 10447 10445 10442 10439 10436 10435 10434 10431 10429 10426 10424 10422 10420 10418 10415 10411 10408 10404 10401 10397 10394 10390 10387 10384 10380 10376 10372 10369 10365 10362 10358 10354 10351 10347 10343 10338 10333 10328 10323 10319 10315 10311 10307 10305 10301 10297 10291 10287 10283 10279 10275 10271
10493 10492 10492 10492 10492 10491 10491 10491 10491 10490 10489 10489 10488 10486 10483 10480 10477 10476 10473 10469 10466 10461 10458 10456 10455 10454 10453 10453 10450 10448 10446 10445 10443 10441 10438 10435 10432 10430 10430 10428 10426 10424 10420 10417 10415 10414 10412 10409 10406 10403 10399 10396 10393 10389 10386 10382 10379 10375 10371 10368 10365 10361 10358 10354 10351 10348 10344 10340 10335 10331 10326 10321 10316 10312 10308 10304 10301 10298 10295 10291 10286 10282 10278 10274 10271
10486 10485 10485 10485 10485 10484 10484 10484 10483 10482 10481 10480 10479 10478 10476 10473 10470 10467 10464 10462 10459 10455 10451 10449 10447 10446 10446 10445 10443 10440 10438 10436 10435 10433 10430 10427 10425 10425 10425 10423 10420 10418 10414 10411 10409 10407 10406 10403 10400 10397 10394 10391 10388 10385 10381 10377 10374 10370 10367 10363 10360 10357 10353 10350 10347 10344 10340 10336 10332 10328 10324 10319 10314 10309 10306 10302 10299 10295 10293 10289 10285 10281 10277 10274 10271
10479 10478 10478 10477 10477 10477 10476 10476 10475 10474 10472 10471 10470 10468 10467 10465 10461 10458 10456 10453 10450 10446 10443 10440 10439 10438 10437 10436 10434 10432 10430 10428 10427 10424 10420 10417 10417 10417 10416 10415 10413 10411 10408 10405 10403 10401 10399 10397 10394 10391 10388 10386 10383 10380 10377 10373 10369 10365 10362 10358 10355 10352 10349 10346 10342 10339 10336 10332 10327 10323 10320 10316 10312 10307 10302 10299 10296 10293 10290 10287 10284 10280 10276 10273 10270
10471 10470 10470 10469 10468 10468 10468 10467 10467 10466 10464 10462 10460 10459 10457 10455 10452 10449 10447 10444 10440 10437 10435 10432 10430 10429 10427 10426 10425 10424 10422 10421 10419 10416 10412 10410 10409 10408 10407 10407 10406 10403 10401 10399 10398 10395 10393 10390 10388 10385 10383 10380 10378 10375 10372 10368 10365 10361 10357 10354 10351 10348 10344 10341 10338 10335 10331 10327 10323 10319 10315 10312 10309 10305 10300 10296 10293 10290 10286 10283 10281 10278 10275 10272 10268
10462 10461 10461 10460 10459 10459 10458 10458 10457 10457 10455 10453 10451 10449 10447 10445 10442 10440 10438 10435 10432 10430 10426 10423 10422 10421 10419 10417 10416 10415 10413 10412 10411 10409 10406 10404 10403 10401 10400 10400 10398 10396 10394 10393 10391 10389 10386 10384 10382 10379 10377 10375 10372 10370 10367 10364 10360 10356 10352 10349 10346 10343 10340 10337 10333 10330 10326 10323 10319 10315 10311 10308 10305 10302 10297 10293 10290 10287 10284 10281 10278 10275 10272 10270 10266
10453 10452 10451 10450 10450 10449 10449 10448 10447 10446 10445 10443 10441 10439 10437 10435 10432 10430 10428 10426 10424 10421 10418 10415 10415 10414 10411 10409 10408 10406 10405 10404 10403 10401 10399 10397 10396 10395 10394 10393 10391 10389 10387 10386 10385 10382 10379 10377 10375 10373 10371 10369 10367 10364 10362 10358 10355 10350 10347 10344 10341 10338 10335 10332 10329 10325 10321 10318 10314 10310 10306 10303 10300 10297 10294 10290 10287 10283 10281 10278 10275 10272 10270 10267 10265
10443 10443 10442 10442 10441 10440 10439 10438 10437 10436 10434 10433 10431 10429 10428 10426 10424 10421 10419 10416 10415 10413 10410 10409 10408 10406 10403 10401 10400 10398 10397 10396 10395 10393 10391 10390 10389 10388 10387 10385 10384 10382 10380 10379 10378 10375 10373 10370 10369 10367 10365 10363 10361 10358 10356 10353 10349 10345 10341 10338 10336 10333 10330 10328 10324 10320 10316 10312 10308 10305 10301 10299 10296 10292 10289 10286 10283 10280 10278 10275 10272 10270 10267 10265 10263
10434 10434 10433 10432 10431 10430 10429 10428 10427 10426 10425 10423 10421 10419 10418 10416 10415 10413 10411 10408 10406 10404 10403 10402 10400 10398 10396 10394 10392 10390 10389 10388 10386 10384 10383 10382 10381 10380 10379 10378 10377 10375 10373 10372 10370 10368 10366 10364 10362 10360 10359 10357 10354 10352 10350 10347 10343 10339 10335 10333 10330 10328 10325 10322 10319 10315 10311 10307 10303 10299 10296 10293 10290 10287 10284 10282 10279 10277 10274 10272 10269 10267 10264 10262 10260
10425 10424 10423 10422 10421 10420 10419 10418 10417 10415 10414 10412 10411 10410 10408 10406 10404 10403 10402 10400 10398 10397 10396 10394 10391 10389 10388 10386 10384 10383 10382 10380 10378 10376 10375 10374 10373 10372 10371 10371 10370 10368 10366 10364 10363 10362 10359 10357 10355 10354 10352 10350 10348 10345 10343 10340 10337 10332 10329 10327 10324 10322 10320 10317 10314 10310 10305 10301 10297 10294 10291 10288 10285 10282 10279 10277 10275 10273 10270 10268 10266 10263 10261 10259 10257
10417 10416 10414 10413 10411 10410 10409 10407 10405 10404 10403 10402 10401 10400 10398 10396 10394 10393 10392 10391 10390 10388 10387 10385 10383 10381 10380 10378 10377 10376 10374 10372 10370 10368 10367 10366 10366 10365 10364 10363 10362 10361 10359 10357 10356 10355 10352 10349 10347 10346 10345 10344 10341 10339 10337 10334 10330 10326 10323 10321 10318 10317 10315 10312 10309 10305 10300 10295 10292 10288 10285 10283 10280 10277 10274 10273 10271 10269 10266 10264 10262 10260 10258 10256 10254
10408 10407 10405 10403 10402 10401 10399 10397 10396 10395 10393 10392 10391 10390 10388 10386 10384 10383 10382 10381 10380 10378 10377 10375 10374 10373 10371 10369 10368 10367 10365 10363 10362 10361 10360 10359 10358 10358 10357 10356 10355 10354 10352 10350 10349 10347 10345 10342 10340 10339 10338 10336 10334 10332 10330 10327 10324 10320 10317 10315 10313 10311 10309 10307 10304 10299 10295 10290 10286 10283 10279 10277 10274 10272 10270 10268 10267 10265 10262 10260 10258 10256 10254 10252 10251
10398 10397 10396 10394 10392 10391 10390 10389 10387 10386 10385 10383 10382 10381 10379 10377 10375 10373 10372 10370 10369 10368 10366 10365 10364 10363 10362 10360 10359 10359 10357 10355 10353 10353 10352 10351 10351 10350 10350 10349 10348 10346 10344 10343 10341 10340 10337 10334 10332 10331 10330 10329 10327 10325 10323 10321 10318 10314 10311 10309 10307 10305 10303 10301 10298 10294 10290 10286 10282 10277 10274 10271 10269 10267 10265 10264 10262 10261 10259 10256 10254 10252 10250 10248 10247
10389 10387 10386 10385 10383 10381 10380 10379 10378 10377 10376 10374 10373 10371 10370 10368 10365 10363 10362 10361 10360 10358 10357 10356 10355 10354 10352 10351 10351 10350 10348 10347 10346 10346 10345 10344 10344 10343 10342 10341 10340 10338 10336 10335 10334 10332 10330 10327 10325 10324 10322 10321 10320 10318 10316 10314 10311 10308 10305 10302 10300 10299 10297 10295 10292 10288 10285 10281 10277 10273 10268 10265 10264 10263 10261 10259 10258 10256 10254 10252 10250 10248 10246 10244 10242
10379 10378 10377 10376 10375 10373 10371 10370 10369 10368 10367 10365 10363 10362 10360 10358 10355 10354 10352 10351 10350 10349 10347 10345 10345 10344 10343 10342 10342 10341 10340 10340 10339 10339 10338 10337 10336 10335 10334 10333 10332 10330 10329 10328 10326 10324 10322 10320 10318 10317 10315 10314 10312 10311 10309 10307 10304 10302 10299 10296 10294 10293 10290 10288 10285 10282 10279 10276 10273 10268 10264 10260 10258 10258 10256 10254 10253 10251 10250 10248 10246 10244 10242 10240 10238
10370 10369 10368 10367 10366 10365 10363 10361 10360 10359 10357 10356 10354 10352 10350 10348 10346 10344 10343 10342 10340 10338 10336 10335 10335 10335 10334 10334 10334 10333 10333 10332 10332 10331 10330 10329 10328 10327 10326 10325 10324 10323 10321 10320 10318 10317 10315 10313 10311 10310 10308 10306 10305 10303 10301 10299 10297 10295 10292 10290 10288 10286 10284 10281 10278 10275 10273 10270 10267 10263 10259 10255 10253 10252 10251 10249 10248 10246 10245 10243 10241 10239 10238 10236 10234
10361 10359 10358 10357 10356 10355 10354 10352 10350 10349 10348 10346 10344 10342 10340 10338 10336 10335 10335 10333 10330 10328 10327 10327 10327 10327 10326 10326 10325 10325 10325 10324 10324 10323 10322 10321 10320 10319 10318 10317 10316 10315 10314 10312 10311 10309 10308 10306 10304 10302 10300 10298 10297 10295 10293 10291 10289 10287 10285 10282 10281 10279 10276 10274 10271 10269 10267 10264 10261 10258 10254 10251 10248 10246 10244 10243 10242 10241 10240 10238 10236 10234 10232 10231 10230
10351 10350 10348 10346 10345 10343 10342 10341 10340 10338 10337 10335 10334 10333 10331 10329 10327 10326 10325 10323 10321 10319 10319 10319 10319 10319 10318 10318 10317 10317 10316 10316 10315 10314 10313 10312 10312 10311 10310 10309 10308 10307 10306 10304 10303 10301 10300 10298 10296 10295 10293 10291 10289 10287 10285 10283 10281 10279 10277 10275 10273 10271 10268 10266 10264 10262 10260 10257 10254 10252 10249 10247 10243 10240 10238 10236 10235 10235 10234 10232 10230 10228 10227 10225 10225
10341 10340 10338 10336 10334 10333 10331 10330 10329 10327 10326 10325 10324 10323 10322 10321 10319 10317 10315 10314 10313 10312 10312 10312 10312 10311 10311 10310 10309 10309 10308 10308 10307 10306 10305 10304 10303 10303 10302 10301 10300 10299 10298 10296 10294 10293 10292 10290 10288 10287 10285 10284 10282 10280 10278 10276 10274 10272 10270 10267 10265 10263 10261 10259 10257 10254 10252 10250 10248 10246 10244 10242 10239 10236 10233 10230 10228 10227 10227 10226 10225 10223 10221 10220 10219